Location: Bas-Clignon
(44.2000°N, 6.6333°E)
Time: 11:56:11
(UTC+00:00)

Meteor 1-11 - Pass Details

Date: 03 February 2023
Orbit: 839 x 888 km, 81.2° (Epoch: 19 March)

Event Time Altitude Azimuth Distance (km) Brightness Sun altitude
Rises 17:44:50 0° 183° (S) 3,480 7.6 -11.0°
Reaches altitude 10° 17:47:16 10° 182° (S) 2,545 6.9 -11.4°
Maximum altitude 17:53:03 75° 98° (E) 918 4.2 -12.4°
Drops below altitude 10° 17:58:51 10° 14° (NNE) 2,548 6.5 -13.4°
Sets 18:01:18 0° 13° (NNE) 3,485 7.2 -13.8°
